STARLINK-35137

Last updated on Mon Oct 20 2025 00:02:06 GMT+0000 (Coordinated Universal Time)

1 65686U 25212L 25292.25002315 -.00146469 00000+0 -37165-2 0 9996 2 65686 53.1582 281.8141 0001608 68.8146 143.5612 15.39666900 5563
UTC large
Height (km)
Speed (km/s)
/
Latitude / Longitude
Inclination (degrees)
Orbital Period (minutes)
Azimuth
Elevation
Range (km)
Doppler Factor

Next 0 passes for location: London (51.5072 / 0.1276)

Sorry there are no passes over London.